QPF
0.07 0.06 0.08 0.05 0.03 0.02 0.02 0.02 0.02 0.01 0.01 0.02 0.02 0.03 0.03 0.02 0.01 0.01 0.02 0.04 0.02 0.02 0.02 0.02 0.02 0.01 0.01 0.02 0.02 0.03 0.04 0.05 0.03 0.03 0.03 0.03 0.04 0.04 0.06 0.08 0.05 0.04 0.08
0.06 0.06 0.07 0.05 0.02 0.02 0.01 0.02 0.01 0.02 0.03 0.03 0.02 0.03 0.03 0.02 0.01 0.02 0.02 0.03 0.02 0.02 0.02 0.03 0.01 0.01 0.01 0.01 0.01 0.02 0.03 0.04 0.03 0.03 0.03 0.03 0.04 0.05 0.06 0.05 0.03 0.03 0.05
0.04 0.03 0.05 0.05 0.02 0.02 0.01 0.01 0.02 0.03 0.04 0.04 0.04 0.04 0.03 0.02 0.01 0.01 0.01 0.02 0.02 0.02 0.03 0.02 0.00 0.00 0.01 0.01 0.01 0.02 0.03 0.04 0.04 0.03 0.02 0.02 0.03 0.06 0.08 0.06 0.04 0.04 0.05
0.05 0.03 0.02 0.03 0.03 0.03 0.02 0.02 0.03 0.04 0.05 0.04 0.06 0.05 0.03 0.02 0.01 0.01 0.03 0.04 0.02 0.01 0.02 0.02 0.01 0.01 0.00 0.01 0.01 0.01 0.02 0.03 0.04 0.04 0.02 0.01 0.02 0.06 0.07 0.06 0.04 0.03 0.04
0.02 0.02 0.02 0.03 0.02 0.03 0.02 0.02 0.04 0.04 0.05 0.05 0.07 0.04 0.03 0.03 0.02 0.02 0.04 0.04 0.02 0.01 0.01 0.02 0.02 0.01 0.01 0.01 0.01 0.01 0.01 0.02 0.03 0.03 0.01 0.02 0.03 0.06 0.07 0.05 0.05 0.04 0.04
0.02 0.01 0.02 0.04 0.03 0.02 0.02 0.03 0.04 0.05 0.04 0.05 0.07 0.03 0.03 0.03 0.04 0.04 0.04 0.04 0.03 0.02 0.02 0.02 0.02 0.02 0.02 0.02 0.01 0.01 0.01 0.01 0.01 0.01 0.01 0.02 0.03 0.07 0.06 0.06 0.06 0.05 0.06
0.03 0.02 0.02 0.03 0.04 0.04 0.03 0.03 0.02 0.03 0.03 0.05 0.05 0.04 0.04 0.03 0.04 0.05 0.04 0.04 0.04 0.03 0.02 0.02 0.01 0.01 0.02 0.02 0.01 0.01 0.01 0.01 0.00 0.01 0.01 0.01 0.04 0.07 0.07 0.07 0.06 0.06 0.07
0.02 0.02 0.02 0.03 0.04 0.04 0.03 0.02 0.01 0.02 0.03 0.05 0.05 0.05 0.03 0.03 0.03 0.03 0.03 0.03 0.03 0.03 0.02 0.01 0.01 0.01 0.01 0.01 0.01 0.01 0.01 0.01 0.01 0.01 0.01 0.02 0.06 0.07 0.07 0.08 0.07 0.08 0.07
0.02 0.02 0.01 0.02 0.03 0.04 0.03 0.03 0.03 0.04 0.04 0.04 0.04 0.03 0.02 0.02 0.02 0.03 0.03 0.03 0.02 0.02 0.01 0.01 0.01 0.02 0.01 0.01 0.02 0.02 0.02 0.02 0.01 0.01 0.01 0.03 0.07 0.06 0.05 0.07 0.08 0.09 0.08
0.03 0.04 0.02 0.02 0.02 0.02 0.03 0.04 0.04 0.05 0.05 0.04 0.03 0.02 0.01 0.03 0.03 0.03 0.03 0.03 0.02 0.02 0.01 0.02 0.02 0.02 0.02 0.02 0.01 0.02 0.02 0.01 0.00 0.01 0.01 0.03 0.05 0.06 0.04 0.05 0.06 0.06 0.06
0.03 0.04 0.02 0.02 0.03 0.02 0.03 0.04 0.05 0.05 0.05 0.04 0.04 0.03 0.01 0.01 0.01 0.01 0.03 0.03 0.03 0.02 0.02 0.03 0.03 0.03 0.02 0.02 0.03 0.01 0.01 0.00 0.00 0.00 0.01 0.06 0.07 0.07 0.05 0.05 0.05 0.06 0.08
0.04 0.02 0.02 0.02 0.04 0.05 0.05 0.04 0.04 0.04 0.03 0.02 0.03 0.02 0.01 0.00 0.00 0.00 0.02 0.03 0.02 0.02 0.02 0.03 0.02 0.02 0.01 0.01 0.01 0.01 0.00 0.00 0.00 0.00 0.03 0.07 0.09 0.09 0.06 0.06 0.07 0.11 0.16
0.03 0.02 0.03 0.02 0.01 0.02 0.04 0.04 0.04 0.04 0.03 0.02 0.01 0.01 0.01 0.01 0.00 0.00 0.00 0.01 0.01 0.01 0.01 0.01 0.01 0.01 0.01 0.01 0.01 0.01 0.00 0.00 0.00 0.00 0.05 0.08 0.08 0.08 0.07 0.07 0.08 0.09 0.09
0.02 0.02 0.03 0.02 0.01 0.02 0.03 0.04 0.04 0.03 0.03 0.02 0.02 0.01 0.01 0.01 0.01 0.01 0.01 0.01 0.00 0.00 0.01 0.01 0.01 0.01 0.02 0.02 0.01 0.01 0.00 0.00 0.00 0.01 0.05 0.07 0.06 0.07 0.07 0.06 0.07 0.08 0.08
0.02 0.03 0.03 0.02 0.01 0.01 0.02 0.04 0.03 0.03 0.02 0.02 0.02 0.01 0.01 0.02 0.01 0.01 0.01 0.00 0.01 0.01 0.01 0.01 0.02 0.03 0.03 0.03 0.02 0.02 0.00 0.00 0.01 0.01 0.01 0.03 0.04 0.05 0.06 0.06 0.06 0.06 0.07
0.01 0.01 0.02 0.01 0.01 0.01 0.01 0.01 0.02 0.03 0.03 0.02 0.02 0.02 0.01 0.01 0.01 0.01 0.01 0.01 0.01 0.01 0.00 0.01 0.02 0.02 0.02 0.01 0.02 0.02 0.01 0.00 0.01 0.00 0.00 0.01 0.02 0.03 0.05 0.06 0.06 0.06 0.06
0.01 0.01 0.01 0.01 0.01 0.01 0.01 0.01 0.01 0.01 0.01 0.01 0.01 0.01 0.01 0.01 0.01 0.01 0.00 0.00 0.00 0.00 0.00 0.01 0.01 0.01 0.01 0.01 0.02 0.02 0.01 0.00 0.00 0.00 0.00 0.00 0.00 0.01 0.02 0.04 0.06 0.06 0.05
0.02 0.01 0.01 0.02 0.01 0.01 0.01 0.01 0.01 0.00 0.00 0.00 0.00 0.01 0.01 0.01 0.01 0.01 0.00 0.00 0.00 0.00 0.00 0.00 0.01 0.00 0.00 0.01 0.02 0.01 0.00 0.00 0.00 0.00 0.00 0.00 0.00 0.00 0.00 0.01 0.02 0.03 0.05
0.02 0.02 0.01 0.01 0.02 0.02 0.01 0.00 0.01 0.00 0.00 0.00 0.00 0.01 0.01 0.02 0.01 0.01 0.00 0.00 0.00 0.00 0.00 0.00 0.01 0.00 0.00 0.01 0.01 0.01 0.00 0.00 0.00 0.00 0.00 0.00 0.00 0.00 0.00 0.00 0.01 0.01 0.02
0.02 0.02 0.02 0.01 0.01 0.01 0.01 0.00 0.01 0.01 0.01 0.01 0.01 0.00 0.01 0.00 0.00 0.00 0.00 0.00 0.00 0.00 0.00 0.00 0.01 0.00 0.00 0.01 0.01 0.01 0.01 0.01 0.01 0.01 0.00 0.00 0.00 0.00 0.00 0.00 0.00 0.01 0.01
0.01 0.01 0.01 0.01 0.01 0.01 0.00 0.00 0.01 0.01 0.01 0.01 0.01 0.01 0.01 0.01 0.00 0.00 0.00 0.00 0.00 0.00 0.00 0.00 0.01 0.00 0.00 0.00 0.01 0.01 0.02 0.01 0.01 0.01 0.01 0.00 0.00 0.00 0.00 0.00 0.00 0.00 0.00
0.01 0.01 0.01 0.01 0.01 0.01 0.01 0.01 0.01 0.01 0.02 0.01 0.01 0.01 0.01 0.01 0.01 0.01 0.00 0.00 0.01 0.02 0.01 0.01 0.01 0.01 0.01 0.00 0.00 0.01 0.02 0.02 0.02 0.01 0.01 0.00 0.00 0.00 0.01 0.01 0.01 0.01 0.00
0.01 0.01 0.01 0.01 0.01 0.01 0.01 0.01 0.01 0.02 0.03 0.02 0.02 0.01 0.01 0.01 0.01 0.01 0.01 0.01 0.01 0.02 0.02 0.01 0.02 0.02 0.01 0.01 0.01 0.01 0.01 0.01 0.01 0.01 0.01 0.00 0.00 0.01 0.01 0.01 0.01 0.01 0.01
0.01 0.01 0.01 0.01 0.01 0.01 0.02 0.02 0.01 0.02 0.02 0.03 0.03 0.03 0.02 0.02 0.02 0.02 0.01 0.01 0.01 0.01 0.01 0.01 0.01 0.01 0.01 0.01 0.01 0.01 0.01 0.01 0.00 0.01 0.01 0.00 0.00 0.00 0.01 0.01 0.01 0.01 0.01
0.00 0.01 0.01 0.01 0.01 0.02 0.02 0.01 0.01 0.01 0.01 0.01 0.01 0.01 0.01 0.01 0.01 0.01 0.01 0.01 0.01 0.00 0.00 0.00 0.01 0.01 0.01 0.01 0.01 0.01 0.01 0.00 0.00 0.00 0.01 0.00 0.00 0.00 0.01 0.01 0.02 0.02 0.01
0.01 0.01 0.01 0.01 0.01 0.01 0.01 0.01 0.01 0.01 0.01 0.01 0.01 0.01 0.01 0.01 0.01 0.01 0.02 0.01 0.01 0.00 0.00 0.01 0.00 0.01 0.01 0.01 0.01 0.01 0.01 0.01 0.00 0.00 0.00 0.00 0.00 0.00 0.01 0.01 0.01 0.01 0.01
MSLP
1018.07 1017.15 1016.28 1015.56 1015.06 1014.76 1014.64 1014.61 1014.61 1014.57 1014.45 1014.26 1014.03 1013.81 1013.64 1013.54 1013.52 1013.55 1013.61 1013.65 1013.63 1013.56 1013.43 1013.27 1013.08 1012.89 1012.71 1012.52 1012.31 1012.07 1011.79 1011.46 1011.10 1010.74 1010.40 1010.12 1009.91 1009.80 1009.78 1009.85 1010.00 1010.21 1010.48
1018.14 1017.22 1016.35 1015.65 1015.16 1014.87 1014.74 1014.70 1014.68 1014.63 1014.51 1014.33 1014.14 1013.97 1013.85 1013.80 1013.81 1013.86 1013.92 1013.93 1013.89 1013.78 1013.63 1013.44 1013.24 1013.04 1012.85 1012.64 1012.41 1012.13 1011.80 1011.41 1010.98 1010.56 1010.16 1009.83 1009.59 1009.45 1009.42 1009.50 1009.68 1009.94 1010.27
1018.18 1017.26 1016.42 1015.74 1015.28 1015.00 1014.88 1014.83 1014.81 1014.74 1014.63 1014.47 1014.31 1014.17 1014.09 1014.08 1014.11 1014.15 1014.18 1014.17 1014.09 1013.94 1013.76 1013.56 1013.35 1013.16 1012.97 1012.76 1012.52 1012.22 1011.85 1011.42 1010.95 1010.48 1010.03 1009.66 1009.38 1009.21 1009.17 1009.26 1009.46 1009.77 1010.16
1018.13 1017.25 1016.46 1015.84 1015.41 1015.17 1015.06 1015.02 1014.99 1014.93 1014.81 1014.67 1014.53 1014.42 1014.36 1014.36 1014.38 1014.41 1014.41 1014.35 1014.23 1014.06 1013.85 1013.65 1013.45 1013.28 1013.11 1012.92 1012.69 1012.39 1012.01 1011.56 1011.07 1010.56 1010.08 1009.67 1009.36 1009.17 1009.12 1009.20 1009.42 1009.77 1010.21
1018.01 1017.19 1016.47 1015.93 1015.57 1015.38 1015.30 1015.27 1015.23 1015.16 1015.04 1014.91 1014.78 1014.68 1014.63 1014.63 1014.64 1014.65 1014.61 1014.51 1014.36 1014.17 1013.96 1013.77 1013.60 1013.46 1013.33 1013.18 1012.97 1012.69 1012.32 1011.86 1011.35 1010.83 1010.33 1009.89 1009.56 1009.35 1009.28 1009.36 1009.59 1009.96 1010.44
1017.81 1017.08 1016.46 1016.01 1015.74 1015.61 1015.56 1015.54 1015.51 1015.43 1015.30 1015.16 1015.04 1014.95 1014.90 1014.89 1014.89 1014.87 1014.81 1014.68 1014.51 1014.32 1014.12 1013.96 1013.83 1013.74 1013.66 1013.55 1013.38 1013.12 1012.76 1012.32 1011.81 1011.28 1010.77 1010.32 1009.98 1009.75 1009.66 1009.73 1009.95 1010.32 1010.82
1017.60 1016.95 1016.45 1016.11 1015.93 1015.86 1015.85 1015.84 1015.80 1015.70 1015.57 1015.42 1015.29 1015.21 1015.17 1015.16 1015.15 1015.12 1015.04 1014.90 1014.73 1014.54 1014.37 1014.25 1014.17 1014.13 1014.09 1014.02 1013.89 1013.66 1013.32 1012.89 1012.39 1011.87 1011.37 1010.92 1010.56 1010.33 1010.22 1010.27 1010.47 1010.83 1011.31
1017.41 1016.86 1016.46 1016.23 1016.14 1016.13 1016.15 1016.15 1016.09 1015.97 1015.82 1015.67 1015.54 1015.47 1015.44 1015.44 1015.44 1015.41 1015.32 1015.19 1015.02 1014.85 1014.71 1014.63 1014.59 1014.60 1014.60 1014.57 1014.46 1014.26 1013.94 1013.53 1013.05 1012.55 1012.05 1011.62 1011.26 1011.02 1010.90 1010.92 1011.09 1011.41 1011.86
1017.30 1016.84 1016.55 1016.41 1016.40 1016.43 1016.47 1016.45 1016.37 1016.23 1016.06 1015.90 1015.79 1015.73 1015.72 1015.74 1015.75 1015.73 1015.65 1015.53 1015.37 1015.23 1015.12 1015.06 1015.07 1015.11 1015.15 1015.14 1015.06 1014.87 1014.57 1014.18 1013.73 1013.25 1012.78 1012.36 1012.02 1011.77 1011.64 1011.63 1011.76 1012.03 1012.42
1017.30 1016.93 1016.73 1016.67 1016.70 1016.77 1016.80 1016.76 1016.65 1016.49 1016.30 1016.14 1016.04 1016.00 1016.01 1016.06 1016.09 1016.08 1016.01 1015.90 1015.76 1015.63 1015.55 1015.52 1015.55 1015.62 1015.69 1015.71 1015.64 1015.47 1015.20 1014.83 1014.41 1013.96 1013.52 1013.13 1012.80 1012.55 1012.40 1012.37 1012.45 1012.66 1012.99
1017.45 1017.15 1017.01 1017.01 1017.08 1017.14 1017.16 1017.09 1016.95 1016.76 1016.56 1016.40 1016.31 1016.29 1016.33 1016.39 1016.44 1016.44 1016.38 1016.28 1016.15 1016.03 1015.97 1015.97 1016.02 1016.12 1016.21 1016.25 1016.21 1016.07 1015.82 1015.49 1015.10 1014.68 1014.28 1013.91 1013.61 1013.36 1013.21 1013.14 1013.17 1013.32 1013.57
1017.72 1017.49 1017.41 1017.45 1017.52 1017.58 1017.56 1017.46 1017.28 1017.06 1016.85 1016.69 1016.61 1016.62 1016.67 1016.75 1016.80 1016.81 1016.75 1016.64 1016.52 1016.42 1016.37 1016.39 1016.48 1016.61 1016.73 1016.81 1016.80 1016.70 1016.49 1016.19 1015.84 1015.47 1015.10 1014.76 1014.47 1014.24 1014.07 1013.97 1013.95 1014.04 1014.21
1018.10 1017.93 1017.90 1017.95 1018.03 1018.06 1018.01 1017.87 1017.66 1017.43 1017.21 1017.05 1016.98 1016.99 1017.05 1017.12 1017.17 1017.17 1017.10 1016.99 1016.87 1016.79 1016.76 1016.82 1016.94 1017.12 1017.29 1017.41 1017.45 1017.39 1017.23 1016.99 1016.69 1016.35 1016.02 1015.72 1015.44 1015.21 1015.02 1014.89 1014.83 1014.85 1014.95
1018.56 1018.44 1018.45 1018.51 1018.57 1018.58 1018.51 1018.34 1018.11 1017.86 1017.64 1017.49 1017.42 1017.42 1017.47 1017.53 1017.55 1017.53 1017.45 1017.34 1017.23 1017.17 1017.17 1017.27 1017.45 1017.67 1017.90 1018.09 1018.19 1018.20 1018.10 1017.91 1017.66 1017.38 1017.09 1016.80 1016.54 1016.30 1016.10 1015.93 1015.82 1015.78 1015.82
1019.06 1019.00 1019.02 1019.09 1019.14 1019.13 1019.04 1018.86 1018.63 1018.38 1018.16 1018.01 1017.93 1017.92 1017.94 1017.97 1017.97 1017.92 1017.82 1017.71 1017.62 1017.58 1017.63 1017.78 1018.01 1018.30 1018.59 1018.85 1019.03 1019.11 1019.08 1018.97 1018.78 1018.54 1018.29 1018.03 1017.78 1017.53 1017.31 1017.11 1016.95 1016.85 1016.82
1019.60 1019.56 1019.59 1019.65 1019.69 1019.67 1019.58 1019.41 1019.19 1018.96 1018.76 1018.61 1018.53 1018.49 1018.48 1018.47 1018.42 1018.35 1018.24 1018.13 1018.06 1018.06 1018.15 1018.35 1018.64 1018.99 1019.35 1019.68 1019.93 1020.09 1020.14 1020.10 1019.99 1019.81 1019.60 1019.37 1019.13 1018.88 1018.63 1018.40 1018.19 1018.03 1017.93
1020.13 1020.10 1020.13 1020.18 1020.21 1020.19 1020.11 1019.97 1019.79 1019.60 1019.43 1019.29 1019.20 1019.13 1019.08 1019.02 1018.94 1018.84 1018.72 1018.62 1018.57 1018.60 1018.74 1018.98 1019.32 1019.72 1020.13 1020.52 1020.84 1021.07 1021.21 1021.25 1021.21 1021.11 1020.95 1020.76 1020.54 1020.29 1020.02 1019.76 1019.50 1019.29 1019.13
1020.65 1020.60 1020.61 1020.64 1020.66 1020.66 1020.61 1020.53 1020.41 1020.27 1020.14 1020.03 1019.92 1019.83 1019.74 1019.64 1019.52 1019.39 1019.27 1019.18 1019.15 1019.21 1019.38 1019.65 1020.01 1020.43 1020.87 1021.29 1021.67 1021.97 1022.19 1022.32 1022.37 1022.36 1022.27 1022.13 1021.94 1021.71 1021.44 1021.14 1020.85 1020.58 1020.35
1021.14 1021.06 1021.03 1021.03 1021.05 1021.07 1021.07 1021.05 1021.02 1020.96 1020.88 1020.79 1020.69 1020.58 1020.46 1020.32 1020.16 1020.01 1019.89 1019.80 1019.79 1019.86 1020.04 1020.31 1020.67 1021.08 1021.52 1021.96 1022.37 1022.73 1023.02 1023.25 1023.40 1023.48 1023.49 1023.43 1023.29 1023.08 1022.82 1022.52 1022.19 1021.87 1021.58
1021.60 1021.47 1021.39 1021.36 1021.38 1021.42 1021.49 1021.55 1021.60 1021.63 1021.62 1021.57 1021.48 1021.36 1021.21 1021.04 1020.86 1020.70 1020.57 1020.49 1020.48 1020.55 1020.71 1020.95 1021.27 1021.65 1022.06 1022.49 1022.91 1023.30 1023.67 1023.99 1024.25 1024.44 1024.56 1024.59 1024.53 1024.37 1024.13 1023.83 1023.48 1023.13 1022.78
1022.01 1021.83 1021.70 1021.65 1021.66 1021.74 1021.87 1022.02 1022.17 1022.28 1022.34 1022.34 1022.28 1022.15 1021.99 1021.80 1021.61 1021.43 1021.30 1021.22 1021.20 1021.26 1021.38 1021.58 1021.84 1022.15 1022.50 1022.89 1023.30 1023.72 1024.14 1024.55 1024.92 1025.23 1025.46 1025.60 1025.63 1025.54 1025.34 1025.05 1024.70 1024.32 1023.93
1022.38 1022.16 1021.99 1021.91 1021.93 1022.05 1022.24 1022.47 1022.70 1022.90 1023.04 1023.09 1023.05 1022.94 1022.78 1022.58 1022.39 1022.21 1022.08 1021.99 1021.96 1021.99 1022.07 1022.21 1022.39 1022.62 1022.90 1023.23 1023.61 1024.04 1024.50 1024.97 1025.44 1025.86 1026.21 1026.45 1026.57 1026.56 1026.42 1026.17 1025.83 1025.43 1025.02
1022.72 1022.48 1022.28 1022.19 1022.21 1022.35 1022.60 1022.90 1023.21 1023.49 1023.69 1023.79 1023.79 1023.71 1023.55 1023.37 1023.18 1023.01 1022.88 1022.80 1022.76 1022.76 1022.80 1022.86 1022.97 1023.11 1023.31 1023.57 1023.91 1024.32 1024.79 1025.31 1025.85 1026.36 1026.81 1027.15 1027.36 1027.43 1027.35 1027.14 1026.83 1026.45 1026.03
1023.04 1022.79 1022.59 1022.49 1022.52 1022.68 1022.96 1023.31 1023.69 1024.02 1024.28 1024.44 1024.48 1024.42 1024.29 1024.13 1023.96 1023.81 1023.70 1023.63 1023.59 1023.57 1023.57 1023.58 1023.61 1023.68 1023.80 1023.99 1024.27 1024.64 1025.11 1025.64 1026.21 1026.77 1027.29 1027.70 1027.99 1028.13 1028.12 1027.97 1027.69 1027.34 1026.93
1023.34 1023.12 1022.93 1022.83 1022.86 1023.04 1023.34 1023.72 1024.13 1024.51 1024.81 1025.01 1025.09 1025.07 1024.98 1024.85 1024.71 1024.60 1024.51 1024.46 1024.43 1024.41 1024.39 1024.37 1024.35 1024.36 1024.41 1024.53 1024.75 1025.07 1025.49 1026.00 1026.57 1027.14 1027.68 1028.14 1028.48 1028.68 1028.73 1028.64 1028.42 1028.10 1027.72
1023.64 1023.45 1023.29 1023.20 1023.24 1023.41 1023.72 1024.11 1024.53 1024.93 1025.26 1025.49 1025.61 1025.63 1025.58 1025.49 1025.40 1025.33 1025.28 1025.27 1025.26 1025.26 1025.25 1025.21 1025.17 1025.14 1025.15 1025.21 1025.36 1025.62 1025.98 1026.43 1026.95 1027.49 1028.02 1028.49 1028.86 1029.10 1029.21 1029.17 1029.01 1028.74 1028.40
Thickness
5761 5764 5765 5764 5764 5764 5764 5764 5764 5764 5764 5763 5763 5763 5762 5762 5761 5761 5760 5760 5759 5759 5759 5760 5760 5760 5761 5761 5762 5762 5763 5763 5763 5763 5763 5764 5764 5765 5765 5766 5765 5765 5765
5764 5764 5764 5763 5763 5763 5763 5763 5763 5763 5762 5762 5761 5761 5760 5760 5759 5759 5758 5758 5758 5758 5758 5758 5758 5758 5759 5760 5760 5760 5761 5761 5761 5761 5761 5761 5762 5762 5763 5763 5763 5763 5763
5764 5763 5763 5762 5762 5762 5762 5762 5761 5761 5760 5760 5759 5759 5758 5758 5757 5757 5757 5756 5756 5756 5755 5756 5756 5756 5757 5757 5758 5758 5758 5759 5759 5758 5759 5759 5760 5760 5760 5761 5761 5761 5761
5762 5762 5761 5761 5761 5761 5761 5760 5760 5759 5759 5758 5758 5757 5756 5756 5756 5755 5755 5754 5754 5753 5753 5753 5754 5754 5755 5755 5755 5756 5756 5756 5756 5756 5756 5757 5757 5758 5758 5758 5759 5759 5759
5761 5760 5760 5760 5760 5759 5759 5759 5758 5758 5757 5757 5756 5755 5755 5754 5754 5753 5753 5752 5752 5751 5751 5751 5751 5752 5752 5752 5753 5753 5753 5753 5753 5754 5754 5754 5755 5755 5755 5756 5756 5756 5756
5759 5758 5758 5758 5758 5757 5757 5757 5756 5756 5755 5755 5754 5753 5753 5752 5751 5751 5750 5750 5749 5749 5749 5749 5749 5749 5750 5750 5750 5750 5750 5750 5750 5751 5751 5751 5752 5752 5753 5753 5753 5753 5753
5756 5756 5756 5756 5756 5755 5755 5754 5754 5754 5753 5753 5752 5751 5750 5749 5748 5748 5748 5747 5747 5746 5746 5746 5746 5747 5747 5747 5747 5747 5747 5747 5747 5747 5748 5748 5749 5749 5750 5750 5750 5750 5750
5755 5754 5753 5754 5753 5753 5753 5752 5752 5752 5752 5751 5749 5749 5748 5747 5746 5745 5745 5744 5744 5744 5743 5743 5743 5743 5743 5744 5744 5743 5743 5743 5743 5744 5744 5745 5746 5746 5746 5746 5746 5747 5747
5753 5752 5751 5751 5751 5750 5750 5749 5749 5749 5748 5748 5747 5746 5745 5744 5743 5742 5742 5742 5741 5741 5741 5740 5740 5740 5740 5740 5740 5740 5740 5740 5740 5740 5741 5742 5742 5743 5743 5743 5743 5743 5743
5750 5749 5748 5748 5748 5747 5747 5746 5746 5746 5745 5744 5743 5742 5741 5741 5740 5740 5739 5739 5739 5738 5738 5737 5737 5737 5737 5736 5736 5736 5735 5735 5736 5736 5737 5738 5739 5740 5740 5739 5739 5739 5739
5746 5746 5746 5745 5745 5744 5744 5744 5743 5743 5742 5741 5740 5739 5739 5738 5737 5736 5736 5736 5736 5735 5735 5735 5734 5734 5733 5733 5732 5732 5731 5731 5732 5733 5734 5735 5736 5736 5736 5736 5735 5735 5735
5742 5743 5744 5743 5743 5742 5742 5741 5740 5739 5739 5739 5738 5737 5736 5735 5734 5733 5733 5733 5732 5732 5732 5732 5731 5730 5730 5729 5728 5727 5727 5727 5728 5728 5730 5731 5731 5732 5732 5732 5731 5731 5731
5742 5742 5742 5742 5741 5740 5739 5739 5738 5737 5737 5736 5735 5735 5734 5733 5732 5731 5730 5729 5729 5729 5728 5728 5728 5727 5726 5725 5724 5723 5723 5723 5723 5724 5725 5726 5727 5727 5727 5727 5727 5727 5727
5741 5742 5742 5741 5739 5739 5738 5737 5735 5735 5734 5734 5733 5732 5731 5730 5729 5728 5727 5726 5726 5725 5725 5725 5724 5723 5722 5721 5721 5719 5719 5718 5719 5720 5721 5721 5722 5722 5722 5722 5722 5722 5722
5739 5740 5741 5740 5738 5737 5736 5734 5734 5733 5732 5731 5731 5730 5729 5728 5727 5726 5724 5723 5723 5722 5722 5721 5721 5720 5719 5717 5717 5716 5715 5714 5714 5714 5715 5716 5716 5717 5718 5718 5718 5717 5717
5737 5738 5738 5738 5737 5736 5734 5732 5731 5731 5730 5729 5728 5728 5727 5726 5724 5723 5721 5721 5720 5719 5719 5718 5717 5716 5715 5713 5712 5711 5710 5710 5709 5709 5710 5710 5711 5712 5712 5713 5712 5712 5712
5736 5737 5736 5736 5735 5733 5732 5731 5730 5728 5727 5726 5725 5725 5724 5723 5722 5720 5719 5717 5716 5716 5715 5715 5713 5712 5711 5709 5708 5707 5706 5705 5705 5704 5704 5704 5705 5705 5706 5707 5707 5707 5707
5736 5735 5735 5735 5732 5731 5730 5729 5728 5726 5725 5724 5723 5722 5721 5721 5719 5717 5715 5714 5713 5712 5711 5710 5708 5707 5705 5704 5703 5702 5702 5701 5700 5700 5699 5699 5699 5699 5700 5700 5700 5701 5701
5735 5734 5732 5732 5730 5728 5727 5726 5725 5724 5722 5721 5720 5719 5718 5717 5716 5714 5712 5711 5710 5709 5707 5706 5704 5702 5700 5699 5699 5698 5697 5697 5696 5696 5694 5694 5694 5694 5694 5694 5694 5694 5695
5733 5732 5730 5728 5727 5726 5724 5723 5721 5720 5719 5717 5716 5716 5715 5714 5713 5711 5709 5708 5707 5705 5703 5701 5699 5698 5696 5695 5695 5693 5692 5692 5692 5691 5690 5689 5688 5688 5688 5688 5688 5688 5688
5731 5729 5727 5725 5724 5723 5720 5717 5715 5713 5714 5713 5713 5713 5712 5711 5709 5708 5706 5704 5703 5701 5699 5698 5696 5693 5691 5691 5689 5685 5685 5687 5686 5686 5685 5684 5683 5683 5683 5682 5682 5682 5682
5727 5726 5724 5723 5722 5721 5719 5716 5714 5712 5711 5711 5710 5709 5709 5708 5706 5705 5703 5701 5700 5697 5695 5694 5692 5689 5687 5687 5684 5678 5674 5675 5678 5680 5680 5679 5678 5678 5677 5677 5677 5677 5677
5725 5724 5723 5721 5720 5719 5717 5714 5711 5709 5707 5706 5704 5704 5705 5705 5703 5702 5700 5698 5696 5695 5692 5691 5689 5686 5683 5683 5683 5678 5670 5666 5668 5671 5673 5673 5672 5672 5672 5671 5671 5671 5671
5724 5724 5722 5720 5718 5717 5715 5711 5707 5703 5699 5699 5700 5700 5701 5701 5700 5699 5697 5695 5694 5692 5690 5688 5687 5685 5682 5679 5679 5678 5676 5672 5665 5662 5664 5666 5666 5666 5666 5666 5665 5665 5665
5724 5722 5720 5718 5716 5714 5712 5709 5706 5701 5699 5698 5698 5697 5697 5696 5696 5695 5694 5692 5690 5689 5687 5686 5684 5683 5681 5678 5675 5674 5672 5669 5667 5661 5656 5657 5658 5659 5659 5660 5660 5660 5660
5721 5720 5718 5715 5712 5711 5709 5707 5703 5700 5697 5694 5693 5692 5692 5692 5692 5692 5691 5689 5688 5686 5685 5683 5682 5680 5678 5676 5674 5671 5668 5665 5662 5658 5654 5651 5651 5652 5654 5654 5655 5655 5654